sat.trackr.live / text

‹ back to catalog

LILIUM-3

NORAD 66770 · 2025-276DJ

PAYLOAD ACTIVE UNKNOWN

§ Identity

Operator
Country
ROC
Launch date
2025-11-28
Launch site
AFWTR
Launch vehicle
Mass (kg)
RCS (m²)

External: N2YO · Heavens-Above · Gunter

§ Orbital elements

Epoch: 2026-05-24T15:33:42.935040Z

Period
94.78 min
Inclination
97.4250°
Eccentricity
0.0001887
Mean motion
15.19382645 rev/d
Perigee alt
506.4 km
Apogee alt
509.0 km
Semi-major
6,885.8 km
B*
8.8846e-5
RAAN
218.7973°
Arg perigee
27.8493°
Mean anomaly
332.2842°
Rev number
2,685

§ Raw data

LILIUM-31 66770U 25276DJ  26144.64841360  .00001812  00000+0  88846-4 0  99962 66770  97.4250 218.7973 0001887  27.8493 332.2842 15.19382645 26858

JSON: /api/v1/satellites/66770 · /tle

For live sub-satellite position, see the globe view (requires WebGL).

§ Visibility from observer

Set your observer location to see the next 7 days of passes ≥ 10°. The values pass through the URL so the page stays shareable.

No JS? Fill the form by hand. The geolocation button needs JavaScript.